• In Slovakia
  • List of Countries
  • For 7 days
  • Water Temperature
  • Satellite Maps
  • Weather Map
  • Weather Widgets
  • user-avatar
    Login

    Hourly Weather Armawir

    Today, 23 June, Saturday

    Time Temperature Precipitation Wind Pressure Humidity
    00:00 +20°C° 0.4 mm 2 mps 684 mmHg 68%
    01:00 +20°C° 0.1 mm 2 mps 684 mmHg 69%
    02:00 +21°C° 0.1 mm 1 mps 684 mmHg 70%
    03:00 +20°C° 0 mm 1 mps 684 mmHg 72%
    04:00 +21°C° 0.1 mm 1 mps 684 mmHg 70%
    05:00 +21°C° 0.1 mm 1 mps 684 mmHg 68%
    06:00 +22°C° 0.1 mm 1 mps 685 mmHg 65%
    07:00 +24°C° 0.2 mm 1 mps 685 mmHg 59%
    08:00 +25°C° 0.2 mm 1 mps 685 mmHg 53%
    09:00 +27°C° 0.2 mm 2 mps 685 mmHg 47%
    10:00 +28°C° 0.4 mm 2 mps 685 mmHg 44%
    11:00 +30°C° 0.4 mm 2 mps 685 mmHg 41%
    12:00 +31°C° 0.4 mm 2 mps 685 mmHg 37%
    13:00 +31°C° 0.2 mm 2 mps 684 mmHg 37%
    14:00 +31°C° 0.2 mm 2 mps 684 mmHg 36%
    15:00 +32°C° 0.2 mm 1 mps 684 mmHg 35%
    16:00 +31°C° 0.3 mm 1 mps 684 mmHg 38%
    17:00 +31°C° 0.3 mm 1 mps 684 mmHg 40%
    18:00 +30°C° 0.3 mm 2 mps 684 mmHg 43%
    19:00 +28°C° 0.4 mm 2 mps 685 mmHg 48%
    20:00 +26°C° 0.4 mm 2 mps 685 mmHg 53%
    21:00 +24°C° 0.4 mm 2 mps 685 mmHg 58%
    22:00 +23°C° 0.3 mm 2 mps 685 mmHg 61%
    23:00 +23°C° 0.3 mm 2 mps 685 mmHg 63%

    Tomorrow, 24 June, Sunday

    Time Temperature Precipitation Wind Pressure Humidity
    00:00 +21°C° 0.3 mm 2 mps 685 mmHg 66%
    01:00 +21°C° 0.2 mm 2 mps 685 mmHg 67%
    02:00 +20°C° 0.2 mm 2 mps 685 mmHg 69%
    03:00 +20°C° 0.2 mm 2 mps 685 mmHg 70%
    04:00 +20°C° 0 mm 2 mps 685 mmHg 68%
    05:00 +21°C° 0 mm 2 mps 686 mmHg 66%
    06:00 +23°C° 0 mm 2 mps 686 mmHg 65%
    07:00 +25°C° 0 mm 1 mps 686 mmHg 59%
    08:00 +26°C° 0 mm 1 mps 686 mmHg 52%
    09:00 +28°C° 0 mm 1 mps 686 mmHg 46%
    10:00 +29°C° 0.1 mm 2 mps 686 mmHg 43%
    11:00 +31°C° 0.1 mm 2 mps 686 mmHg 39%
    12:00 +32°C° 0.1 mm 2 mps 686 mmHg 36%
    13:00 +32°C° 0.1 mm 2 mps 685 mmHg 35%
    14:00 +34°C° 0.1 mm 2 mps 685 mmHg 34%
    15:00 +34°C° 0.1 mm 2 mps 685 mmHg 32%
    16:00 +34°C° 0.4 mm 3 mps 685 mmHg 35%
    17:00 +33°C° 0.4 mm 3 mps 685 mmHg 38%
    18:00 +31°C° 0.4 mm 3 mps 685 mmHg 40%
    19:00 +29°C° 0.3 mm 3 mps 685 mmHg 46%
    20:00 +27°C° 0.3 mm 3 mps 685 mmHg 52%
    21:00 +25°C° 0.3 mm 2 mps 686 mmHg 58%
    22:00 +24°C° 0.2 mm 2 mps 686 mmHg 60%
    23:00 +24°C° 0.2 mm 2 mps 686 mmHg 63%

    Day after tomorrow, 25 June, Monday

    Time Temperature Precipitation Wind Pressure Humidity
    00:00 +22°C° 0.2 mm 3 mps 686 mmHg 65%
    01:00 +23°C° 0 mm 2 mps 686 mmHg 67%
    02:00 +21°C° 0 mm 2 mps 686 mmHg 69%
    03:00 +20°C° 0 mm 2 mps 686 mmHg 71%
    04:00 +21°C° 0 mm 2 mps 686 mmHg 69%
    05:00 +23°C° 0 mm 2 mps 686 mmHg 68%
    06:00 +23°C° 0 mm 2 mps 686 mmHg 67%
    07:00 +25°C° 0 mm 2 mps 687 mmHg 59%
    08:00 +27°C° 0 mm 2 mps 687 mmHg 52%
    09:00 +29°C° 0 mm 2 mps 687 mmHg 45%
    10:00 +30°C° 0.1 mm 2 mps 687 mmHg 42%
    11:00 +32°C° 0.1 mm 2 mps 687 mmHg 38%
    12:00 +34°C° 0.1 mm 2 mps 686 mmHg 35%
    13:00 +34°C° 0.1 mm 2 mps 686 mmHg 34%
    14:00 +35°C° 0.1 mm 3 mps 686 mmHg 33%
    15:00 +35°C° 0.1 mm 3 mps 686 mmHg 32%
    16:00 +35°C° 0.3 mm 3 mps 686 mmHg 35%
    17:00 +34°C° 0.3 mm 3 mps 686 mmHg 38%
    18:00 +33°C° 0.3 mm 4 mps 686 mmHg 40%
    19:00 +30°C° 0.2 mm 3 mps 686 mmHg 47%
    20:00 +28°C° 0.2 mm 3 mps 686 mmHg 53%
    21:00 +26°C° 0.2 mm 3 mps 687 mmHg 59%
    22:00 +25°C° 0 mm 3 mps 687 mmHg 60%
    23:00 +24°C° 0 mm 2 mps 687 mmHg 61%

    26 June, Tuesday

    Time Temperature Precipitation Wind Pressure Humidity
    00:00 +23°C° 0 mm 2 mps 686 mmHg 62%
    01:00 +23°C° 0 mm 2 mps 686 mmHg 62%
    02:00 +23°C° 0 mm 2 mps 686 mmHg 62%
    03:00 +21°C° 0 mm 2 mps 686 mmHg 63%
    04:00 +23°C° 0 mm 2 mps 686 mmHg 61%
    05:00 +24°C° 0 mm 2 mps 686 mmHg 60%
    06:00 +24°C° 0 mm 2 mps 687 mmHg 58%
    07:00 +26°C° 0 mm 2 mps 687 mmHg 52%
    08:00 +28°C° 0 mm 2 mps 687 mmHg 46%
    09:00 +30°C° 0 mm 2 mps 687 mmHg 40%
    10:00 +32°C° 0 mm 2 mps 687 mmHg 37%
    11:00 +34°C° 0 mm 2 mps 686 mmHg 33%
    12:00 +36°C° 0 mm 2 mps 686 mmHg 30%
    13:00 +36°C° 0 mm 2 mps 686 mmHg 29%
    14:00 +37°C° 0 mm 3 mps 686 mmHg 28%
    15:00 +37°C° 0 mm 3 mps 686 mmHg 27%
    16:00 +37°C° 0 mm 3 mps 685 mmHg 30%
    17:00 +36°C° 0 mm 3 mps 685 mmHg 32%
    18:00 +35°C° 0 mm 3 mps 685 mmHg 35%
    19:00 +33°C° 0 mm 3 mps 685 mmHg 42%
    20:00 +29°C° 0 mm 3 mps 686 mmHg 49%
    21:00 +27°C° 0 mm 3 mps 686 mmHg 56%
    22:00 +26°C° 0 mm 2 mps 686 mmHg 57%
    23:00 +25°C° 0 mm 2 mps 686 mmHg 58%

    27 June, Wednesday

    Time Temperature Precipitation Wind Pressure Humidity
    00:00 +25°C° 0 mm 2 mps 686 mmHg 58%
    01:00 +24°C° 0 mm 2 mps 686 mmHg 58%
    02:00 +24°C° 0 mm 2 mps 686 mmHg 59%
    03:00 +23°C° 0 mm 2 mps 686 mmHg 59%
    04:00 +24°C° 0 mm 1 mps 686 mmHg 58%
    05:00 +25°C° 0 mm 1 mps 686 mmHg 57%
    06:00 +26°C° 0 mm 1 mps 686 mmHg 56%
    07:00 +28°C° 0 mm 1 mps 686 mmHg 49%
    08:00 +30°C° 0 mm 1 mps 686 mmHg 43%
    09:00 +32°C° 0 mm 1 mps 687 mmHg 37%
    10:00 +34°C° 0 mm 2 mps 686 mmHg 34%
    11:00 +36°C° 0 mm 2 mps 686 mmHg 31%
    12:00 +37°C° 0 mm 2 mps 686 mmHg 28%
    13:00 +38°C° 0 mm 2 mps 686 mmHg 27%
    14:00 +38°C° 0 mm 2 mps 686 mmHg 26%
    15:00 +39°C° 0 mm 2 mps 686 mmHg 25%
    16:00 +38°C° 0 mm 2 mps 685 mmHg 27%
    17:00 +37°C° 0 mm 2 mps 685 mmHg 30%
    18:00 +37°C° 0 mm 3 mps 685 mmHg 33%
    19:00 +34°C° 0 mm 3 mps 685 mmHg 39%
    20:00 +30°C° 0 mm 3 mps 686 mmHg 46%
    21:00 +28°C° 0 mm 2 mps 686 mmHg 53%
    22:00 +27°C° 0 mm 2 mps 686 mmHg 54%
    23:00 +26°C° 0 mm 2 mps 686 mmHg 55%

    28 June, Thursday

    Time Temperature Precipitation Wind Pressure Humidity
    00:00 +26°C° 0 mm 2 mps 686 mmHg 55%
    01:00 +25°C° 0 mm 2 mps 686 mmHg 55%
    02:00 +25°C° 0 mm 2 mps 686 mmHg 55%
    03:00 +24°C° 0 mm 2 mps 686 mmHg 55%
    04:00 +25°C° 0 mm 2 mps 686 mmHg 54%
    05:00 +25°C° 0 mm 2 mps 687 mmHg 54%
    06:00 +26°C° 0 mm 2 mps 687 mmHg 53%
    07:00 +28°C° 0 mm 2 mps 687 mmHg 47%
    08:00 +30°C° 0 mm 2 mps 687 mmHg 41%
    09:00 +32°C° 0 mm 1 mps 687 mmHg 35%
    10:00 +35°C° 0 mm 2 mps 687 mmHg 33%
    11:00 +36°C° 0 mm 2 mps 687 mmHg 30%
    12:00 +37°C° 0 mm 2 mps 687 mmHg 28%
    13:00 +38°C° 0 mm 2 mps 686 mmHg 27%
    14:00 +38°C° 0 mm 3 mps 686 mmHg 26%
    15:00 +39°C° 0 mm 3 mps 686 mmHg 26%
    16:00 +38°C° 0 mm 3 mps 686 mmHg 28%
    17:00 +37°C° 0 mm 4 mps 686 mmHg 31%
    18:00 +36°C° 0 mm 4 mps 686 mmHg 34%
    19:00 +34°C° 0 mm 3 mps 686 mmHg 40%
    20:00 +30°C° 0 mm 3 mps 686 mmHg 46%
    21:00 +28°C° 0 mm 3 mps 686 mmHg 52%
    22:00 +27°C° 0 mm 2 mps 686 mmHg 52%
    23:00 +26°C° 0 mm 2 mps 686 mmHg 52%
    Show more